sat.trackr.live / text

‹ back to catalog

APRIZESAT 9

NORAD 40018 · 2014-033J

PAYLOAD ACTIVE UNKNOWN

§ Identity

Operator
Country
US
Launch date
2014-06-19
Launch site
DLS
Launch vehicle
Mass (kg)
RCS (m²)
0.13

Purposes: tech_demo

External: N2YO · Heavens-Above · Gunter

§ Orbital elements

Epoch: 2026-05-24T22:14:11.825664Z

Period
97.68 min
Inclination
97.9029°
Eccentricity
0.0064743
Mean motion
14.74180812 rev/d
Perigee alt
602.3 km
Apogee alt
693.2 km
Semi-major
7,025.9 km
B*
7.0348e-5
RAAN
278.6978°
Arg perigee
275.1804°
Mean anomaly
84.2018°
Rev number
64,013

§ Raw data

APRIZESAT 91 40018U 14033J   26144.92652576  .00000426  00000+0  70348-4 0  99902 40018  97.9029 278.6978 0064743 275.1804  84.2018 14.74180812640132

JSON: /api/v1/satellites/40018 · /tle

For live sub-satellite position, see the globe view (requires WebGL).

§ Visibility from observer

Set your observer location to see the next 7 days of passes ≥ 10°. The values pass through the URL so the page stays shareable.

No JS? Fill the form by hand. The geolocation button needs JavaScript.

§ Radio — SatNOGS DB

ModeDescriptionDownlinkUplink
GMSK Store and dump 400.552 MHz

1 transmitter · refreshed weekly from db.satnogs.org